Regional Weather Roundup
Issued by NWS Northern Indiana

Home | Current Version | Previous Version | Graphics & Text | Print | Product List | Glossary On
Versions: 1 2 3 4 5 6 7 8 9 10 11 12 13 14 15 16 17 18 19 20 21 22 23 24 25 26 27 28 29 30 31 32 33 34 35 36 37 38 39 40 41 42 43 44 45 46 47 48 49 50
000
ASUS43 KIWX 300210
RWRIWX

KIWX WEATHER ROUNDUP
NATIONAL WEATHER SERVICE NORTHERN INDIANA
1000 PM EDT SUN MAR 29 2015

NOTE: "FAIR" INDICATES FEW OR NO CLOUDS BELOW 12,000 FEET WITH NO
SIGNIFICANT WEATHER AND/OR OBSTRUCTIONS TO VISIBILITY.

* THESE STATIONS ARE NOT UNDER NWS QUALITY CONTROL. THEY ALSO MAY NOT
  REPORT WEATHER SUCH AS PRECIPITATION OR FOG.

INZ001>027-300300-
NORTHERN INDIANA

CITY           SKY/WX    TMP DP  RH WIND       PRES   REMARKS
GARY*          CLOUDY    50  34  53 NW17G33   29.87R
VALPARAISO     CLOUDY    46  37  71 W20G25    29.85R
MICHIGAN CITY* CLOUDY    45  32  61 NW14G26   29.87R
LAPORTE*       CLOUDY    46  37  71 W12       29.84R
KNOX*            N/A     43  27  52 SW16G25   29.82S
SOUTH BEND     CLOUDY    44  35  70 SW17G26   29.83R
GOSHEN         CLOUDY    42  32  67 SW17      29.81S
MONTICELLO*    CLOUDY    43  37  78 SW14G21   29.87S
LOGANSPORT*    CLOUDY    41  36  81 SW13      29.88S
ROCHESTER*     CLOUDY    45  36  70 SW13      29.85S
WARSAW*        CLOUDY    43  32  65 SW12G20   29.83S
ANGOLA*        CLOUDY    41  30  65 SW16      29.80S
FORT WAYNE     CLOUDY    41  32  70 SW18      29.86F
HUNTINGTON*    CLOUDY    42  29  61 SW12G17   29.86F
PERU/GRISSOM   CLOUDY    43  35  74 SW18G25   29.86F
MARION*        CLOUDY    39  33  78 SW14      29.90F

$$
INZ028>050-300300-
CENTRAL INDIANA

CITY           SKY/WX    TMP DP  RH WIND       PRES   REMARKS
LAFAYETTE      CLOUDY    44  37  76 SW8       29.91R
KOKOMO*          N/A     43  36  75 SW20G26   29.89S
MUNCIE*        MOCLDY    42  32  67 SW13      29.91S
INDIANAPOLIS   MOCLDY    43  36  76 SW14      29.94R

$$
MIZ043>046-050>051-056>058-064>065-071>073-077>080-300300-
SOUTHWEST LOWER MICHIGAN

CITY           SKY/WX    TMP DP  RH WIND       PRES   REMARKS
BATTLE CREEK   LGT RAIN  38  34  85 SW18      29.76R FOG
BENTON HARBOR  CLOUDY    41  36  82 W22G30    29.83R
COLDWATER*     CLOUDY    41  32  70 SW18G32   29.78S
HILLSDALE*     RAIN      40  30  67 SW15G25   29.78S
HOLLAND        CLOUDY    41  35  79 W24G33    29.77R
GRAND RAPIDS   LGT RAIN  38  35  89 SW17      29.72R FOG
KALAMAZOO      LGT RAIN  41  35  79 SW12      29.78R
STURGIS*       CLOUDY    39  32  75 SW15G21   29.79S
THREE RIVERS*  CLOUDY    41  33  73 SW10G20   29.79S

$$
OHZ001>008-015>018-024>025-300300-
NORTHWEST OHIO

CITY           SKY/WX    TMP DP  RH WIND       PRES   REMARKS
WAUSEON*       CLOUDY    39  28  65 SW18G26   29.81F
DEFIANCE       CLOUDY    41  30  65 S14G23    29.84F
FINDLAY        CLOUDY    40  30  67 S21       29.88F
TOLEDO EXPRESS CLOUDY    41  28  60 SW20G31   29.82F
TOLEDO METCALF CLOUDY    41  27  57 S21G33    29.85F
LIMA           CLOUDY    42  30  62 S15       29.89F

$$
AND FOR LAKE MICHIGAN COASTAL AND OPEN LAKE BUOY OBSERVATIONS

STATION/POSITION TEMP    WIND        PRES    VSBY  WAVE
                 AIR SEA DIR/SP/G                  HT/PER
                 (F)     (DEG/KT/KT) (MB)    (MI)  (FT/S)
CALUMET HARBOR    48     270/ 12/ 18 1010.4R
MICHIGAN CITY     43     260/ 26/ 30   N/A
BURNS HARBOR      45     270/ 17/ 20 1011.5R
SAINT JOSEPH      39     230/ 16/ 21 1010.5R

$$
&&


USA.gov is the U.S. government's official web portal to all federal, state and local government web resources and services.